Snowfall_Accumulation
0.0 0.0 0.0 0.0 0.0 0.0 0.0 0.0 0.0 0.0 0.0 0.0 0.0 0.0 0.0 0.0 0.0 0.0 0.0 0.0 0.0 0.0 0.0 0.0 0.0 0.0 0.0 0.0 0.0 0.0 0.0 0.0 0.2 0.0 0.0 0.0 0.0 0.0 0.0 0.0 0.0 0.0 0.0
0.0 0.0 0.0 0.0 0.0 0.0 0.0 0.0 0.0 0.0 0.0 0.0 0.0 0.0 0.0 0.0 0.0 0.0 0.0 0.0 0.0 0.0 0.0 0.0 0.0 0.0 0.0 0.0 0.0 0.0 0.0 0.0 0.0 0.0 0.0 0.0 0.0 0.0 0.0 0.0 0.0 0.0 0.2
0.0 0.0 0.0 0.0 0.0 0.0 0.0 0.0 0.0 0.0 0.0 0.0 0.0 0.0 0.0 0.0 0.0 0.0 0.0 0.0 0.0 0.0 0.0 0.0 0.0 0.0 0.1 0.1 0.0 0.0 0.0 0.0 0.0 0.4 0.4 0.3 0.3 0.3 0.4 0.2 0.1 0.1 0.0
0.0 0.0 0.0 0.0 0.0 0.0 0.0 0.0 0.0 0.0 0.0 0.0 0.0 0.0 0.0 0.0 0.0 0.0 0.0 0.0 0.0 0.0 0.0 0.0 0.0 0.0 0.0 0.0 0.0 0.0 0.1 0.4 0.4 0.6 0.6 0.5 0.6 0.7 0.7 0.9 1.2 0.7 1.0
0.0 0.0 0.0 0.0 0.0 0.0 0.0 0.0 0.1 0.1 0.0 0.0 0.0 0.0 0.0 0.0 0.0 0.0 0.0 0.0 0.0 0.0 0.1 0.1 0.0 0.0 nan nan 0.2 0.2 0.2 0.4 1.1 1.4 1.0 0.9 0.9 1.0 1.1 0.9 2.1 1.4 1.3
0.0 0.0 0.0 0.1 0.1 0.1 0.1 0.1 0.1 0.1 0.1 0.1 0.1 0.1 0.1 0.0 nan nan 0.0 0.1 0.1 0.1 0.1 0.1 0.1 0.1 0.1 nan nan nan nan 0.3 3.5 3.9 1.1 1.0 0.3 1.0 1.4 1.9 2.7 3.5 4.0
0.1 0.2 0.2 0.1 0.2 0.1 0.2 0.2 0.2 0.1 0.1 0.2 0.2 0.1 0.2 0.1 nan nan nan 0.1 0.1 0.1 0.1 0.1 0.1 0.1 0.2 0.1 nan nan nan nan nan 0.2 0.9 0.9 1.8 1.3 2.2 3.3 2.2 3.1 3.1
0.2 0.3 0.3 0.2 0.5 0.3 0.3 0.3 0.2 0.2 0.2 0.2 0.3 0.2 0.2 0.2 nan nan nan 0.1 0.1 0.1 0.1 0.2 0.2 0.2 0.2 0.3 0.3 0.6 0.4 0.3 0.3 0.3 0.6 0.9 1.0 1.2 1.3 1.4 2.8 4.5 3.7
0.1 0.2 0.2 0.4 1.0 0.5 1.8 0.6 0.4 0.8 0.6 1.1 0.9 2.0 1.5 1.1 nan nan 0.1 0.4 0.4 0.4 0.2 0.3 0.3 0.4 nan nan 1.3 3.4 2.5 1.8 nan nan nan nan nan nan nan 7.2 17.8 20.8 11.9
0.1 0.1 0.2 0.4 1.8 1.6 0.5 1.2 1.5 1.5 1.6 2.4 1.9 1.8 0.8 3.1 nan nan nan 2.5 3.9 2.5 1.2 0.5 1.0 0.5 nan nan 2.1 4.4 7.7 3.9 3.7 4.4 2.4 1.1 nan nan nan 3.2 7.4 19.7 11.9
0.5 0.6 0.8 0.7 2.4 1.0 1.3 1.0 2.2 3.1 1.9 3.5 3.6 2.5 3.1 1.7 1.5 nan nan 1.7 3.6 5.1 4.8 3.3 1.9 nan nan nan nan 4.4 5.3 3.8 7.0 6.1 5.6 5.4 4.7 4.2 3.8 3.3 2.6 4.5 9.1
1.3 1.5 2.0 3.4 2.6 2.6 6.3 3.7 5.2 4.8 5.4 4.9 5.2 4.2 3.4 2.0 nan nan nan nan nan 7.6 4.6 2.3 2.2 nan nan nan 2.5 nan nan 3.2 9.6 10.6 9.3 7.6 5.4 5.2 4.5 4.6 3.5 3.6 3.5
4.3 6.3 6.1 5.1 5.2 5.1 7.7 5.8 6.5 5.6 6.9 4.5 6.3 6.2 4.9 4.2 4.2 nan nan nan nan 4.0 2.8 2.3 nan nan nan nan nan nan 2.3 7.7 10.2 12.7 9.8 6.8 4.3 4.0 4.0 4.5 4.0 3.9 3.7
8.3 4.7 3.7 5.1 3.4 4.3 5.1 5.6 9.0 7.5 6.8 7.8 9.3 9.1 6.5 6.1 3.9 3.6 5.8 3.6 2.6 4.9 nan 3.9 nan 3.1 nan nan 3.9 3.8 5.7 6.4 7.0 8.2 8.1 5.5 5.1 6.4 6.8 4.9 6.9 6.1 9.6
6.0 3.5 3.8 5.3 6.1 4.1 3.9 6.1 5.7 3.7 7.8 14.7 16.7 13.1 14.1 12.4 7.9 3.8 9.7 10.1 8.7 8.8 7.5 12.4 10.2 6.9 7.0 6.1 7.8 7.4 7.0 7.6 9.0 9.1 9.9 9.2 8.5 8.0 7.7 6.1 6.5 8.3 10.7
3.7 5.4 5.0 4.9 4.1 3.9 4.2 4.6 nan nan nan nan nan 8.7 10.0 nan nan nan nan nan nan nan 17.8 20.7 11.8 9.3 7.5 7.6 9.4 9.5 8.5 7.7 8.7 9.7 10.5 10.3 10.6 8.9 9.0 9.7 9.3 10.3 11.0
6.7 4.6 5.7 4.6 5.1 5.8 6.2 7.2 8.7 6.7 nan nan nan nan nan nan nan nan nan nan nan nan 30.4 17.6 14.9 10.8 10.3 8.7 10.2 9.6 9.6 8.1 6.2 8.9 8.7 9.4 10.2 10.8 10.5 9.9 9.0 8.5 12.0
6.7 2.1 7.0 6.9 6.7 7.3 7.9 8.3 8.7 10.4 11.8 9.9 nan nan nan nan nan nan nan nan 26.1 nan 24.0 24.2 21.2 17.6 14.3 13.2 11.3 10.9 11.0 10.3 9.5 10.4 10.6 13.9 15.3 15.9 14.4 14.0 10.7 13.2 12.8
7.1 6.0 6.8 6.8 6.7 7.0 8.0 7.4 8.3 8.6 8.7 10.8 10.8 11.1 6.0 nan nan nan nan 18.9 24.2 22.2 22.4 23.1 20.1 18.7 15.4 16.2 15.2 16.8 14.8 15.1 14.3 18.5 18.6 19.6 17.6 18.1 17.6 12.9 10.3 6.4 7.4
8.0 3.4 6.0 10.1 9.5 8.7 6.6 8.4 7.9 8.3 9.4 10.5 10.8 9.5 15.7 15.8 22.1 22.8 19.8 25.7 25.8 23.5 21.0 22.9 23.3 24.8 25.1 23.3 22.8 21.2 21.3 22.1 20.4 21.2 21.0 19.8 18.3 19.0 13.3 17.4 15.0 12.7 14.0
14.2 12.0 2.7 10.5 12.8 13.0 13.4 11.4 9.5 12.6 11.2 12.5 9.8 9.2 nan 16.7 17.9 19.5 22.5 21.1 24.1 25.7 21.7 23.4 24.5 30.1 30.8 32.9 28.0 27.0 25.5 16.8 20.7 22.6 23.8 23.8 22.9 27.1 16.9 11.4 15.8 16.6 16.2
15.5 15.9 15.9 17.1 12.6 13.2 14.9 10.8 11.8 12.0 11.5 10.5 8.7 9.0 nan 11.4 13.9 14.4 16.1 20.5 24.7 25.2 28.2 32.5 31.9 34.2 30.5 28.1 25.8 23.9 20.4 23.8 25.6 24.5 20.7 21.8 24.8 21.5 20.4 14.2 14.8 12.9 16.5
14.2 12.9 13.5 13.5 13.1 6.6 14.6 16.6 15.2 14.6 13.6 14.7 12.8 13.5 15.4 18.2 16.0 15.6 22.0 24.7 20.1 19.0 21.2 22.4 21.0 21.0 19.6 22.4 19.8 19.2 20.8 23.5 24.6 30.6 22.4 23.2 22.8 25.4 22.3 19.5 17.0 18.2 16.9
13.4 13.5 13.1 16.9 15.3 13.0 15.2 16.4 14.8 6.4 15.3 16.4 24.9 20.3 13.0 16.9 23.1 17.1 17.9 20.8 17.0 27.7 20.3 21.8 18.2 17.7 19.2 28.0 34.3 33.7 35.8 37.2 36.2 33.5 30.7 22.4 22.6 18.6 19.1 20.8 16.4 14.7 12.9
16.3 14.3 14.4 13.5 19.9 17.0 16.3 19.5 15.1 19.7 22.4 18.3 21.3 16.5 17.1 15.6 16.0 22.0 20.3 16.7 18.5 17.0 14.7 14.7 15.4 15.8 16.0 17.0 23.3 29.0 28.4 4.3 19.2 4.7 27.7 20.5 24.4 25.2 24.1 19.9 18.2 15.4 12.7
13.8 15.0 15.7 16.6 16.3 17.5 18.1 18.1 18.9 15.9 19.7 20.5 19.2 19.1 16.6 16.2 15.9 18.3 17.0 16.8 13.5 13.9 14.3 15.8 15.8 13.7 12.8 14.7 15.8 6.7 4.1 3.6 23.1 4.0 22.7 19.1 22.2 21.5 21.3 21.4 19.7 17.9 14.4
Water_Equivalent
0.00 0.00 0.00 0.00 0.00 0.00 0.00 0.00 0.00 0.00 0.00 0.00 0.00 0.00 0.00 0.00 0.00 0.00 0.00 0.00 0.00 0.00 0.00 0.00 0.00 0.00 0.00 0.00 0.00 0.00 0.00 0.00 0.06 0.00 0.00 0.00 0.00 0.00 0.00 0.00 0.00 0.00 0.01
0.00 0.00 0.00 0.00 0.00 0.00 0.00 0.00 0.00 0.00 0.00 0.00 0.00 0.00 0.00 0.00 0.00 0.00 0.00 0.00 0.00 0.00 0.00 0.00 0.00 0.00 0.01 0.00 0.00 0.00 0.00 0.00 0.02 0.01 0.00 0.00 0.00 0.00 0.01 0.02 0.00 0.00 0.08
0.00 0.00 0.00 0.00 0.00 0.00 0.00 0.00 0.00 0.00 0.00 0.00 0.00 0.00 0.00 0.00 0.00 0.00 0.00 0.00 0.00 0.00 0.00 0.00 0.00 0.01 0.02 0.03 0.00 0.00 0.01 0.01 0.00 0.10 0.10 0.08 0.09 0.10 0.12 0.06 0.03 0.04 0.01
0.00 0.00 0.00 0.00 0.00 0.00 0.00 0.00 0.00 0.00 0.00 0.00 0.00 0.00 0.00 0.00 0.00 0.00 0.00 0.00 0.00 0.00 0.00 0.00 0.00 0.01 0.02 0.01 0.02 0.02 0.02 0.12 0.13 0.17 0.16 0.14 0.14 0.16 0.18 0.19 0.23 0.17 0.22
0.00 0.00 0.00 0.00 0.00 0.00 0.01 0.01 0.02 0.02 0.00 0.00 0.00 0.01 0.00 0.00 0.00 0.01 0.01 0.01 0.01 0.01 0.02 0.02 0.01 0.00 nan nan 0.07 0.05 0.05 0.12 0.30 0.35 0.24 0.19 0.18 0.19 0.19 0.18 0.39 0.30 0.25
0.00 0.00 0.00 0.02 0.03 0.03 0.03 0.03 0.02 0.02 0.02 0.02 0.02 0.02 0.02 0.00 nan nan 0.01 0.02 0.02 0.02 0.02 0.03 0.03 0.03 0.03 nan nan nan nan 0.08 0.73 0.81 0.25 0.18 0.07 0.20 0.28 0.35 0.47 0.53 0.51
0.02 0.04 0.04 0.03 0.04 0.03 0.03 0.03 0.03 0.03 0.03 0.03 0.03 0.03 0.03 0.03 nan nan nan 0.05 0.04 0.02 0.03 0.04 0.04 0.03 0.05 0.04 nan nan nan nan nan 0.05 0.17 0.17 0.32 0.25 0.42 0.51 0.34 0.48 0.52
0.04 0.07 0.06 0.04 0.09 0.05 0.05 0.05 0.04 0.03 0.04 0.04 0.05 0.04 0.04 0.03 nan nan nan 0.03 0.03 0.03 0.03 0.04 0.06 0.07 0.07 0.09 0.09 0.14 0.10 0.09 0.08 0.07 0.15 0.20 0.24 0.26 0.27 0.27 0.48 0.75 0.62
0.02 0.03 0.04 0.06 0.15 0.08 0.25 0.09 0.06 0.13 0.09 0.16 0.14 0.30 0.23 0.20 nan nan 0.04 0.09 0.08 0.08 0.04 0.06 0.08 0.09 nan nan 0.25 0.54 0.42 0.34 nan nan nan nan nan nan nan 1.42 2.63 2.87 1.60
0.02 0.02 0.03 0.07 0.27 0.22 0.08 0.18 0.23 0.23 0.22 0.36 0.27 0.27 0.19 0.46 nan nan nan 0.60 0.67 0.45 0.21 0.11 0.31 0.12 nan nan 0.42 0.72 1.08 0.62 0.68 0.86 0.48 0.24 nan nan nan 0.56 1.23 2.59 1.55
0.08 0.08 0.11 0.10 0.33 0.15 0.20 0.16 0.33 0.42 0.26 0.48 0.47 0.37 0.46 0.31 0.26 nan nan 0.35 0.64 0.87 0.84 0.58 0.36 nan nan nan nan 0.79 0.88 0.72 1.24 1.04 0.95 0.92 0.83 0.75 0.69 0.58 0.44 0.72 1.30
0.18 0.19 0.25 0.44 0.36 0.36 0.83 0.51 0.72 0.65 0.68 0.62 0.65 0.57 0.52 0.29 nan nan nan nan nan 1.39 0.77 0.40 0.39 nan nan nan 0.67 nan nan 0.80 1.73 1.69 1.43 1.13 0.83 0.79 0.69 0.67 0.47 0.48 0.48
0.49 0.72 0.71 0.63 0.65 0.67 0.99 0.66 0.90 0.75 0.88 0.54 0.78 0.76 0.60 0.59 0.65 nan nan nan nan 0.76 0.53 0.40 nan nan nan nan nan nan 0.77 1.34 1.62 1.75 1.23 0.85 0.60 0.55 0.50 0.56 0.46 0.44 0.40
0.99 0.52 0.40 0.55 0.45 0.53 0.71 0.83 1.23 0.98 0.83 0.95 1.12 1.07 0.74 0.69 0.51 0.55 1.02 0.77 0.65 0.89 nan 0.73 nan 0.58 nan nan 0.77 0.68 0.91 0.98 1.00 1.10 0.98 0.68 0.66 0.78 0.80 0.61 0.81 0.73 1.19
0.66 0.34 0.46 0.68 0.79 0.49 0.46 0.78 0.68 0.48 1.00 1.71 2.05 1.47 1.52 1.40 0.99 0.55 1.43 1.60 1.52 1.48 1.37 1.76 1.41 0.95 0.94 0.83 1.05 0.99 0.97 1.06 1.19 1.20 1.15 1.06 1.00 0.94 0.90 0.71 0.76 0.99 1.26
0.36 0.57 0.58 0.59 0.50 0.45 0.46 0.50 nan nan nan nan nan 1.26 1.61 nan nan nan nan nan nan nan 2.70 2.64 1.29 1.03 0.79 0.83 1.04 0.99 0.88 0.91 0.92 1.06 1.15 1.15 1.18 0.98 1.00 1.11 1.09 1.19 1.23
0.74 0.49 0.62 0.52 0.53 0.61 0.65 0.75 0.89 0.72 nan nan nan nan nan nan nan nan nan nan nan nan 4.04 2.02 1.62 1.11 1.03 0.84 0.99 0.91 0.89 0.77 0.58 0.89 0.88 0.99 1.10 1.21 1.23 1.14 1.03 0.97 1.42
0.70 0.68 0.75 0.73 0.71 0.76 0.83 0.87 0.91 1.07 1.23 1.02 nan nan nan nan nan nan nan nan 3.36 nan 2.93 2.86 2.40 1.91 1.42 1.26 1.04 0.97 0.98 0.92 0.85 0.98 1.03 1.49 1.72 1.82 1.67 1.66 1.25 1.60 1.55
0.74 0.63 0.72 0.72 0.71 0.76 0.85 0.76 0.84 0.84 0.86 1.11 1.11 1.17 1.02 nan nan nan nan 2.19 2.90 2.54 2.55 2.63 2.16 1.94 1.50 1.62 1.51 1.72 1.44 1.48 1.40 1.95 2.00 2.18 2.00 2.10 2.09 1.51 1.17 0.96 1.05
0.80 0.83 0.80 1.06 0.95 0.85 0.63 0.79 0.73 0.78 0.87 1.03 1.08 0.95 1.70 1.92 2.59 2.67 2.23 3.11 3.06 2.68 2.30 2.54 2.57 2.80 2.84 2.61 2.54 2.32 2.30 2.42 2.16 2.27 2.24 2.17 2.05 2.23 1.41 2.08 1.80 1.43 1.70
1.38 1.13 0.88 0.97 1.24 1.28 1.33 1.06 0.84 1.20 1.05 1.24 0.95 0.92 nan 1.73 1.89 2.10 2.49 2.26 2.70 2.95 2.37 2.62 2.72 3.56 3.71 4.11 3.32 3.15 2.90 1.71 2.23 2.49 2.67 2.67 2.58 3.26 1.93 1.19 1.85 2.03 1.97
1.46 1.54 1.54 1.65 1.11 1.17 1.40 0.94 1.05 1.07 1.02 0.90 0.71 0.81 nan 1.06 1.33 1.41 1.58 2.18 2.75 2.76 3.17 3.80 3.71 4.11 3.56 3.25 2.88 2.67 2.17 2.67 2.96 2.74 2.16 2.30 2.77 2.38 2.38 1.58 1.68 1.44 2.01
1.24 1.05 1.13 1.13 1.10 1.42 1.28 1.55 1.35 1.31 1.18 1.34 1.17 1.17 1.37 1.82 1.54 1.46 2.32 2.62 1.99 1.84 2.14 2.30 2.15 2.14 1.99 2.38 2.06 2.00 2.16 2.52 2.66 3.62 2.31 2.45 2.37 2.82 2.53 2.21 1.93 2.14 2.04
1.10 1.13 1.10 1.55 1.34 1.07 1.33 1.45 1.24 1.52 1.33 1.47 2.48 1.98 1.12 1.55 2.31 1.57 1.68 2.05 1.62 3.05 2.06 2.25 1.77 1.73 1.97 3.23 4.24 4.15 4.51 4.77 4.49 4.05 3.59 2.27 2.26 2.01 1.93 2.32 1.80 1.73 1.40
1.42 1.18 1.21 1.11 1.87 1.47 1.38 1.74 1.21 1.74 2.06 1.61 2.02 1.43 1.46 1.32 1.45 2.24 2.04 1.61 1.84 1.69 1.42 1.42 1.51 1.57 1.61 1.73 2.55 3.39 3.63 1.43 2.60 1.57 3.08 2.03 2.51 2.58 2.44 2.05 1.90 1.56 1.34
1.14 1.24 1.31 1.39 1.35 1.51 1.61 1.59 1.68 1.32 1.75 1.87 1.72 1.73 1.46 1.44 1.45 1.80 1.64 1.63 1.27 1.33 1.41 1.58 1.58 1.36 1.26 1.47 1.59 1.66 1.34 1.17 2.73 1.33 2.41 1.88 2.22 2.02 1.98 2.02 1.84 1.75 1.40
SL_Ratio
nan nan nan nan nan nan nan nan nan nan nan nan nan nan nan nan nan nan nan nan nan nan nan nan nan nan nan nan nan nan nan nan 2.7 nan nan nan 0.0 3.3 nan nan nan 3.3 2.1
nan nan nan nan nan nan nan nan nan nan nan nan nan nan nan nan nan nan nan nan nan nan nan nan nan nan 3.2 nan nan nan nan nan 2.5 3.7 nan 3.3 3.1 2.3 2.4 2.8 5.0 nan 3.0
nan nan nan nan nan nan nan nan nan nan nan nan nan nan nan nan nan nan nan nan nan nan nan nan nan 3.1 3.0 2.8 2.2 1.8 2.7 2.5 2.5 3.6 4.0 3.6 3.5 3.1 3.4 3.6 3.7 3.8 3.2
nan nan nan nan nan nan nan nan nan nan nan nan nan nan nan nan 0.0 3.3 2.5 nan nan nan nan 2.7 3.3 3.0 2.9 2.8 2.9 2.5 2.9 3.3 3.4 3.5 3.8 3.9 3.9 4.1 3.8 4.7 5.2 4.4 4.4
nan nan nan nan nan 3.3 2.8 2.9 3.2 3.3 nan nan nan 3.8 2.9 3.3 0.0 3.1 3.2 3.0 3.1 3.2 3.2 3.0 2.8 3.3 nan nan 3.1 3.3 3.4 3.5 3.8 4.0 4.3 4.7 5.1 5.6 5.8 5.1 5.4 4.8 5.2
nan 0.0 0.0 3.1 3.6 3.7 3.7 3.8 3.9 4.2 4.3 4.6 4.9 4.9 4.9 0.0 nan nan 2.8 3.1 3.0 3.0 3.3 3.3 3.0 3.2 2.9 nan nan nan nan 3.7 4.8 4.8 4.6 5.3 5.0 5.0 5.0 5.6 5.7 6.6 7.8
3.8 4.1 4.2 4.3 4.5 4.4 4.5 5.0 5.3 5.1 4.9 5.2 5.3 5.1 5.4 4.7 nan nan nan 3.2 3.5 3.1 3.2 3.4 3.3 3.2 3.5 3.2 nan nan nan nan nan 3.8 5.1 4.9 5.6 5.2 5.2 6.5 6.4 6.4 6.0
4.5 5.0 5.2 5.1 5.7 5.7 5.8 5.9 5.6 5.4 5.7 5.9 5.8 5.5 5.3 5.0 nan nan nan 3.3 3.5 3.4 3.3 3.4 3.7 3.8 3.7 3.5 3.5 4.1 3.8 3.8 3.6 3.8 4.2 4.3 4.3 4.6 4.8 5.2 5.8 6.1 6.0
4.6 5.0 5.3 5.7 6.3 6.4 7.2 6.5 6.4 6.6 6.7 6.9 6.3 6.6 6.3 5.6 nan nan 3.3 4.2 4.6 4.6 3.9 4.2 4.3 4.5 nan nan 5.2 6.3 5.9 5.3 nan nan nan nan nan nan nan 5.1 6.8 7.2 7.4
4.6 4.7 5.4 5.9 6.9 7.1 6.4 7.0 6.5 6.6 7.4 6.6 7.0 6.5 4.4 6.6 nan nan nan 4.2 5.8 5.6 5.6 4.9 3.1 4.3 nan nan 4.9 6.0 7.2 6.4 5.4 5.1 5.0 4.5 nan nan nan 5.7 6.0 7.6 7.7
6.0 6.8 7.2 6.9 7.4 6.7 6.6 6.2 6.6 7.4 7.4 7.4 7.5 6.9 6.7 5.6 5.8 nan nan 4.9 5.6 5.9 5.7 5.7 5.2 nan nan nan nan 5.6 6.0 5.2 5.7 5.8 5.9 5.9 5.6 5.6 5.5 5.7 6.0 6.2 7.0
7.3 8.1 8.0 7.7 7.3 7.2 7.7 7.3 7.2 7.3 7.9 8.0 8.0 7.3 6.7 6.8 nan nan nan nan nan 5.5 6.0 5.8 5.5 nan nan nan 3.8 nan nan 4.0 5.6 6.3 6.5 6.7 6.5 6.6 6.5 6.8 7.4 7.6 7.4
8.9 8.8 8.6 8.0 8.0 7.7 7.8 8.8 7.3 7.4 7.8 8.3 8.2 8.2 8.1 7.1 6.4 nan nan nan nan 5.3 5.3 5.9 nan nan nan nan nan nan 3.0 5.7 6.3 7.3 8.0 8.0 7.2 7.3 8.0 8.0 8.6 8.9 9.3
8.4 9.0 9.3 9.2 7.6 8.0 7.2 6.8 7.3 7.7 8.2 8.3 8.3 8.6 8.8 8.8 7.6 6.5 5.7 4.8 4.0 5.5 nan 5.4 nan 5.3 nan nan 5.0 5.6 6.2 6.5 7.0 7.4 8.3 8.1 7.8 8.3 8.5 8.1 8.5 8.4 8.1
9.1 10.1 8.3 7.7 7.7 8.5 8.5 7.8 8.4 7.8 7.8 8.6 8.1 8.9 9.3 8.9 8.0 6.9 6.8 6.3 5.7 5.9 5.5 7.0 7.2 7.2 7.4 7.3 7.4 7.4 7.2 7.2 7.6 7.6 8.6 8.7 8.6 8.5 8.5 8.6 8.6 8.4 8.5
10.2 9.5 8.7 8.3 8.2 8.7 9.1 9.2 nan nan nan nan nan 6.9 6.2 nan nan nan nan nan nan nan 6.6 7.8 9.1 9.0 9.5 9.1 9.0 9.6 9.6 8.5 9.4 9.1 9.1 9.0 9.0 9.0 9.0 8.8 8.6 8.6 9.0
9.0 9.5 9.2 8.8 9.7 9.6 9.5 9.6 9.8 9.2 nan nan nan nan nan nan nan nan nan nan nan nan 7.5 8.7 9.2 9.8 10.0 10.4 10.3 10.5 10.8 10.5 10.7 10.0 9.9 9.5 9.3 8.9 8.5 8.7 8.7 8.7 8.5
9.6 3.0 9.3 9.4 9.4 9.5 9.6 9.6 9.5 9.7 9.6 9.7 nan nan nan nan nan nan nan nan 7.8 nan 8.2 8.4 8.8 9.2 10.1 10.5 10.9 11.2 11.3 11.2 11.2 10.5 10.3 9.3 8.9 8.7 8.6 8.4 8.5 8.3 8.3
9.6 9.5 9.5 9.3 9.4 9.2 9.4 9.8 9.9 10.2 10.2 9.8 9.8 9.5 5.9 nan nan nan nan 8.6 8.3 8.7 8.8 8.8 9.3 9.7 10.2 10.0 10.1 9.8 10.3 10.2 10.2 9.5 9.3 9.0 8.8 8.6 8.4 8.5 8.8 6.7 7.0
10.1 4.1 7.5 9.4 10.0 10.2 10.5 10.6 10.8 10.7 10.8 10.2 10.0 10.0 9.2 8.2 8.5 8.5 8.9 8.3 8.4 8.8 9.1 9.0 9.1 8.9 8.8 8.9 9.0 9.1 9.2 9.2 9.4 9.3 9.4 9.2 8.9 8.5 9.4 8.3 8.3 8.9 8.2
10.3 10.6 3.0 10.9 10.3 10.2 10.1 10.7 11.2 10.5 10.6 10.1 10.3 10.0 nan 9.6 9.5 9.3 9.0 9.3 9.0 8.7 9.2 8.9 9.0 8.5 8.3 8.0 8.4 8.6 8.8 9.8 9.3 9.1 8.9 8.9 8.9 8.3 8.8 9.6 8.5 8.2 8.3
10.6 10.4 10.4 10.4 11.4 11.3 10.7 11.5 11.2 11.1 11.3 11.7 12.2 11.0 nan 10.7 10.5 10.3 10.2 9.4 9.0 9.2 8.9 8.6 8.6 8.3 8.6 8.7 9.0 9.0 9.4 8.9 8.7 8.9 9.6 9.5 9.0 9.0 8.6 9.0 8.8 9.0 8.2
11.5 12.3 11.9 12.0 11.9 4.6 11.4 10.7 11.2 11.2 11.5 10.9 11.0 11.5 11.2 10.0 10.4 10.7 9.5 9.4 10.1 10.3 9.9 9.7 9.8 9.8 9.8 9.4 9.6 9.6 9.6 9.3 9.3 8.4 9.7 9.5 9.6 9.0 8.8 8.8 8.8 8.5 8.3
12.3 12.0 12.0 10.9 11.4 12.2 11.5 11.3 12.0 4.2 11.5 11.2 10.0 10.3 11.6 10.9 10.0 10.9 10.6 10.1 10.5 9.1 9.9 9.7 10.3 10.2 9.7 8.7 8.1 8.1 7.9 7.8 8.1 8.3 8.6 9.9 10.0 9.2 9.9 9.0 9.1 8.5 9.2
11.5 12.1 11.9 12.1 10.6 11.5 11.8 11.2 12.5 11.3 10.8 11.4 10.5 11.5 11.7 11.8 11.1 9.8 10.0 10.4 10.0 10.0 10.4 10.4 10.2 10.1 9.9 9.8 9.1 8.6 7.8 3.0 7.4 3.0 9.0 10.1 9.7 9.8 9.9 9.7 9.6 9.8 9.5
12.1 12.1 12.0 11.9 12.1 11.6 11.3 11.4 11.2 12.0 11.2 10.9 11.2 11.0 11.4 11.3 11.0 10.2 10.4 10.3 10.7 10.4 10.2 10.0 10.0 10.1 10.2 10.0 9.9 4.1 3.0 3.0 8.4 3.0 9.4 10.1 10.0 10.6 10.8 10.6 10.7 10.2 10.3